Flag for Canada Weather past 2 weeks in Ottawa, Ontario, Canada

Now
72 °F

Thunderstorms. Fog.


Feels Like: 71 °F
Forecast: 62 / 73 °F
Wind: 10 mph from Southwest

Location: Ottawa Int'L. Ont.

Current Time: Jul 23, 2014 at 6:10:33 AM

Latest Report: Jul 23, 2014 at 5:04 AM


Visibility: 2 mi

Pressure: 29.76 "Hg

Humidity: 83%

Dew point: 66 °F

Location of OttawaLocation

Historic Weather in Ottawa — Graph

°F

Ottawa temperature yesterday

Maximum temperature yesterday: 84 °F (at 12:00 PM)
Minimum temperature yesterday: 63 °F (at 5:00 AM)
Average temperature yesterday: 72 °F

Past Weeks' High & Low Weather Summary

 TemperatureHumidityPressure
High84 °F (Jul 22, 12:00 PM)100% (Jul 8, 5:00 AM)30.26 "Hg (Jul 8, 5:00 AM)
Low50 °F (Jul 11, 5:00 AM)36% (Jul 10, 6:00 PM)29.41 "Hg (Jul 8, 8:00 PM)
Average68 °F74%29.96 "Hg
* Reported Jul 8 4:00 AM — Jul 23 4:55 AM, Ottawa, Weather by CustomWeather, © 2014

Note: Actual official high and low records may vary slightly from our data, if they occured in-between our weather recording intervals... More about our weather records

Advertising

Ottawa weather history for previous 24 hours

 ConditionsComfort  
Time TempWeatherWind HumidityBarometerVisibility
4:55 AM
Jul 23
73 °FThunderstorms. Overcast.10 mph74%29.76 "Hg15 mi
4:00 AM73 °FOvercast.8 mph74%29.77 "Hg15 mi
2:00 AM68 °FPassing clouds.5 mph78%29.81 "Hg15 mi
1:00 AM70 °FPassing clouds.5 mph73%29.83 "Hg15 mi
12:00 AM72 °FClear.8 mph69%29.83 "Hg15 mi
11:00 PM
Jul 22
72 °FPassing clouds.7 mph69%29.86 "Hg15 mi
10:00 PM72 °FPassing clouds.6 mph73%29.86 "Hg15 mi
9:00 PM73 °FOvercast.7 mph69%29.90 "Hg15 mi
8:00 PM79 °FOvercast.7 mph61%29.93 "Hg15 mi
1:00 PM84 °FBroken clouds.9 mph51%30.03 "Hg15 mi
12:00 PM84 °FBroken clouds.9 mph55%30.05 "Hg15 mi
11:00 AM81 °FPassing clouds.8 mph62%30.07 "Hg15 mi
10:00 AM79 °FPassing clouds.7 mph61%30.07 "Hg15 mi
9:00 AM75 °FPassing clouds.7 mph74%30.09 "Hg15 mi
8:00 AM70 °FPassing clouds.5 mph88%30.12 "Hg15 mi
7:00 AM66 °FPassing clouds.3 mph94%30.09 "Hg15 mi
6:00 AM64 °FPassing clouds.5 mph94%30.08 "Hg15 mi
Weather by CustomWeather, © 2014

See weather overviewHow to use our weather pages